Change the Weather History Date:

Saturday, February 15, 2014

  Actual Average Record
Temperature  
Mean Temperature 26 °F -  
Max Temperature 32 °F 37 °F 70 °F (1949)
Min Temperature 19 °F 15 °F -13 °F (1963)
Degree Days  
Heating Degree Days 40    
Moisture  
Dew Point 24 °F    
Average Humidity 83    
Maximum Humidity 96    
Minimum Humidity 60    
Precipitation  
Precipitation 0.09 in - - ()
Sea Level Pressure  
Sea Level Pressure 29.70 in    
Wind  
Wind Speed 6 mph (North)    
Max Wind Speed 14 mph    
Max Gust Speed 30 mph    
Visibility 5 miles    
Events Fog , Snow    
Averages and records for this station are not official NWS values.
T = Trace of Precipitation, MM = Missing Value Source: NWS Daily Summary

Daily Weather History Graph

Daily Weather History Graph

Search for Another Location

Airport or City:

Trip Planner

Search our weather history database for the weather conditions in past years. The results will help you decide how hot, cold, wet, or windy it might be!

Date:

Astronomy

Feb. 15, 2014 Rise Set
Actual Time 6:53 AM EST 5:32 PM EST
Civil Twilight 6:24 AM EST 6:00 PM EST
Nautical Twilight 5:52 AM EST 6:33 PM EST
Astronomical Twilight 5:20 AM EST 7:05 PM EST
Moon 6:31 PM EST (2/15) 6:49 AM EST (2/15)
Length of Visible Light 11h 36m
Length of Day
10h 39m
Full, 100% of the Moon is Illuminated
Feb 15
Full
Feb 22
Last Quarter
Mar 1
New
Mar 8
First Quarter
Mar 16
Full

Hourly Weather History & Observations

Time (EST) Temp. Windchill Dew Point Humidity Pressure Visibility Wind Dir Wind Speed Gust Speed Precip Events Conditions
12:53 AM 21.0 °F - 19.9 °F 96% 29.78 in 5.0 mi Calm Calm - N/A   Partly Cloudy
1:53 AM 21.9 °F 17.2 °F 19.0 °F 89% 29.78 in 6.0 mi WSW 3.5 mph - N/A   Overcast
2:53 AM 19.0 °F 13.9 °F 18.0 °F 96% 29.77 in 5.0 mi SW 3.5 mph - N/A   Scattered Clouds
3:53 AM 21.0 °F - 19.9 °F 96% 29.77 in 6.0 mi Calm Calm - N/A   Overcast
4:53 AM 21.9 °F 17.2 °F 19.9 °F 92% 29.75 in 5.0 mi NE 3.5 mph - 0.00 in Snow Light Snow
5:53 AM 24.1 °F - 21.0 °F 88% 29.75 in 5.0 mi Calm Calm - 0.00 in   Overcast
6:53 AM 24.1 °F - 21.9 °F 91% 29.75 in 6.0 mi Calm Calm - N/A   Overcast
7:17 AM 25.0 °F 20.7 °F 21.9 °F 88% 29.73 in 5.0 mi NE 3.5 mph - N/A   Overcast
7:53 AM 26.1 °F 21.9 °F 21.9 °F 84% 29.75 in 5.0 mi NE 3.5 mph - N/A   Overcast
8:53 AM 30.0 °F 26.5 °F 23.0 °F 75% 29.75 in 9.0 mi East 3.5 mph - N/A   Overcast
9:14 AM 30.9 °F 21.7 °F 23.0 °F 72% 29.73 in 10.0 mi NNE 11.5 mph - N/A   Overcast
9:53 AM 30.9 °F 22.8 °F 23.0 °F 72% 29.74 in 9.0 mi NNE 9.2 mph - N/A   Overcast
10:53 AM 30.9 °F 22.8 °F 21.9 °F 69% 29.73 in 10.0 mi NNE 9.2 mph - N/A   Overcast
11:53 AM 30.9 °F 21.7 °F 24.1 °F 76% 29.71 in 9.0 mi NNE 11.5 mph - N/A   Overcast
12:23 PM 30.9 °F 20.7 °F 24.1 °F 76% 29.67 in 2.0 mi NNE 13.8 mph - 0.00 in Snow Light Snow
12:27 PM 30.0 °F 20.5 °F 25.0 °F 82% 29.67 in 1.2 mi NNE 11.5 mph - 0.00 in Snow Light Snow
12:40 PM 30.0 °F 21.7 °F 26.1 °F 85% 29.66 in 0.8 mi NNE 9.2 mph - 0.00 in Snow Light Snow
12:53 PM 30.0 °F 20.5 °F 26.1 °F 85% 29.67 in 1.0 mi NNE 11.5 mph - 0.00 in Snow Light Snow
1:08 PM 30.0 °F 21.1 °F 26.1 °F 85% 29.66 in 0.8 mi NNE 10.4 mph - 0.00 in Snow Light Snow
1:32 PM 30.0 °F 21.7 °F 27.0 °F 88% 29.65 in 0.5 mi NNE 9.2 mph - 0.01 in Fog , Snow Snow
1:44 PM 30.0 °F 21.7 °F 27.0 °F 88% 29.64 in 0.2 mi NNE 9.2 mph - 0.03 in Fog , Snow Snow
1:53 PM 30.0 °F 21.7 °F 28.0 °F 92% 29.65 in 0.5 mi NNE 9.2 mph - 0.03 in Fog , Snow Snow
2:53 PM 30.0 °F 23.2 °F 28.0 °F 92% 29.66 in 0.5 mi NNE 6.9 mph - 0.03 in Fog , Snow Snow
3:14 PM 30.0 °F 22.4 °F 28.0 °F 92% 29.65 in 0.5 mi NNE 8.1 mph - 0.01 in Fog , Snow Snow
3:46 PM 30.0 °F 22.4 °F 27.0 °F 88% 29.64 in 1.0 mi NNE 8.1 mph - 0.02 in Snow Light Snow
3:53 PM 30.0 °F 24.1 °F 28.0 °F 92% 29.66 in 1.0 mi NNE 5.8 mph - 0.02 in Snow Light Snow
4:13 PM 30.0 °F 24.1 °F 27.0 °F 88% 29.64 in 0.8 mi NNE 5.8 mph - 0.00 in Snow Light Snow
4:50 PM 30.2 °F 25.4 °F 28.4 °F 93% 29.64 in 1.0 mi NNE 4.6 mph - 0.01 in Snow Light Snow
4:53 PM 30.0 °F 25.2 °F 28.0 °F 92% 29.65 in 1.0 mi NE 4.6 mph - 0.01 in Snow Light Snow
5:33 PM 30.9 °F 24.3 °F 28.0 °F 89% 29.66 in 1.8 mi Variable 6.9 mph - 0.00 in Snow Light Snow
5:40 PM 32.0 °F 25.6 °F 28.0 °F 85% 29.66 in 3.0 mi North 6.9 mph - 0.00 in Snow Light Snow
5:53 PM 32.0 °F 24.8 °F 27.0 °F 82% 29.68 in 4.0 mi North 8.1 mph - 0.00 in Snow Light Snow
6:19 PM 32.0 °F 25.6 °F 27.0 °F 82% 29.67 in 4.0 mi NNW 6.9 mph - 0.00 in Snow Light Snow
6:46 PM 32.0 °F 24.8 °F 25.0 °F 75% 29.68 in 7.0 mi North 8.1 mph 18.4 mph 0.00 in   Overcast
6:53 PM 30.9 °F 22.2 °F 25.0 °F 79% 29.70 in 9.0 mi North 10.4 mph 16.1 mph 0.00 in   Overcast
7:00 PM 30.9 °F 22.2 °F 24.1 °F 76% 29.69 in 10.0 mi NNW 10.4 mph 16.1 mph N/A   Overcast
7:53 PM 30.0 °F 20.0 °F 19.9 °F 66% 29.70 in 10.0 mi NNW 12.7 mph 29.9 mph N/A   Overcast
8:53 PM 28.9 °F 20.4 °F 18.0 °F 64% 29.71 in 10.0 mi NNW 9.2 mph 17.3 mph N/A   Mostly Cloudy
9:53 PM 26.1 °F 15.0 °F 16.0 °F 66% 29.74 in 10.0 mi WNW 12.7 mph 20.7 mph N/A   Mostly Cloudy
10:53 PM 24.1 °F 14.4 °F 12.9 °F 62% 29.77 in 10.0 mi NW 9.2 mph 23.0 mph N/A   Overcast
11:53 PM 23.0 °F 11.7 °F 10.9 °F 60% 29.79 in 10.0 mi NW 11.5 mph 17.3 mph N/A   Scattered Clouds